Location: Altleiningen
(49.5078°N, 8.0741°E)
Time: 04:46:45
(UTC+00:00)

Meteor 1-24 Rocket - Pass Details

Date: 14 June 2025
Orbit: 788 x 926 km, 81.2° (Epoch: 12 July)

Event Time Altitude Azimuth Distance (km) Brightness Sun altitude
Exits shadow 23:13:41 27° 168° (SSE) 1,692 4.7 -17.1°
Maximum altitude 23:16:59 63° 97° (E) 1,020 4.0 -17.1°
Drops below altitude 10° 23:22:49 10° 18° (NNE) 2,585 7.4 -17.2°
Sets 23:25:16 0° 15° (NNE) 3,512 8.4 -17.2°
